Location: Six Mile Lake
(44.9000°N, 79.7170°W)
Time: 23:18:25
(UTC-04:00)

EO-79 - Pass Details

Date: 27 June 2022
Orbit: 588 x 603 km, 98.0° (Epoch: 13 August)

Event Time Altitude Azimuth Distance (km) Brightness Sun altitude
Rises 02:43:48 0° 18° (NNE) 2,850 ? -19.3°
Reaches altitude 10° 02:46:01 10° 23° (NNE) 1,946 ? -19.1°
Maximum altitude 02:50:09 51° 100° (E) 757 ? -18.9°
Enters shadow 02:51:44 33° 157° (SSE) 1,022 ? -18.8°
